Terminal Aerodrome Forecast
Issued by NWS

Home | Current Version | Previous Version | Text Only | Print | Product List | Glossary On
Versions: 1 2 3 4 5 6 7 8 9 10 11 12 13
000
FTUS41 KBTV 181100
TAFMSS
TAF
KMSS 181135Z 1812/1912 36010KT P6SM SCT025 SCT050
      TEMPO 1812/1814 BKN015 BKN025
     FM181800 34008KT P6SM FEW250
     FM190300 VRB03KT P6SM SKC=

USA.gov is the U.S. government's official web portal to all federal, state and local government web resources and services.